軌道要素
Epoch 2016 July 31.0 TT = JDT 2457600.5
T 2016 Sept. 5.14749 TT                                 MPCW
q   1.7763664            (2000.0)            P               Q
n   0.13460936     Peri.  341.12745     +0.74434638     -0.36058936
a   3.7706759      Node    54.00654     +0.66634429     +0.34562785
e   0.5288997      Incl.   44.00334     +0.04397460     +0.86632367
P   7.32
From 253 observations 2003 Jan. 5-2016 Aug. 15, mean residual 0".7.
     Nongravitational parameters A1 = -0.35, A2 = +0.0138.
  |